Location: Shenandoah County Park
(38.9356°N, 78.4524°W)
Time: 18:55:48
(UTC-04:00)

Transit 4A - Visible Passes

Search period start: 12 July 2024 00:00
Search period end: 22 July 2024 00:00
Orbit: 870 x 973 km, 66.8° (Epoch: 12 July)

Date Brightness Start Highest point End Pass type
(mag) Time Alt. Az. Time Alt. Az. Time Alt. Az.
12 Jul 10.4 02:23:32 10° N 02:27:32 18° NE 02:31:35 10° E visible
12 Jul 7.8 04:08:33 10° NNW 04:14:36 86° WSW 04:20:48 10° SSE visible
13 Jul 9.9 02:32:01 10° N 02:36:53 25° NE 02:41:51 10° ESE visible
13 Jul 7.9 04:17:39 10° NW 04:23:34 58° WSW 04:29:37 10° S visible
14 Jul 9.3 02:40:40 10° NNW 02:46:08 35° NE 02:51:43 10° ESE visible
14 Jul 8.4 04:26:55 10° NW 04:32:28 38° WSW 04:38:07 10° S visible
15 Jul 10.7 01:06:45 10° NNE 01:07:32 10° NE 01:08:19 10° NE visible
15 Jul 8.6 02:49:27 10° NNW 02:55:18 50° ENE 03:01:17 10° SE visible
15 Jul 8.9 04:36:26 10° NW 04:41:18 25° WSW 04:44:45 16° SSW visible
16 Jul 10.4 01:13:52 10° N 01:17:02 14° NE 01:20:15 10° ENE visible
16 Jul 8.0 02:58:21 10° NNW 03:04:24 74° ENE 03:08:03 26° SE visible
16 Jul 9.3 04:46:26 10° WNW 04:50:04 16° WSW 04:51:25 15° WSW visible
17 Jul 10.0 01:22:07 10° N 01:26:27 20° NE 01:30:50 10° E visible
17 Jul 7.7 03:07:22 10° NNW 03:13:24 77° WSW 03:15:15 47° S visible
18 Jul 9.5 01:30:40 10° N 01:35:47 28° NE 01:39:23 16° E visible
18 Jul 8.0 03:16:30 10° NW 03:22:21 51° WSW 03:22:47 50° SW visible
19 Jul 9.0 01:39:22 10° NNW 01:45:00 39° NE 01:47:08 30° E visible
19 Jul 8.7 03:25:50 10° NW 03:30:33 33° W 03:30:33 33° W visible
20 Jul 10.4 00:04:34 10° NNE 00:06:29 11° NE 00:08:24 10° NE visible
20 Jul 8.3 01:48:11 10° NNW 01:54:08 56° ENE 01:55:04 51° E visible
20 Jul 9.3 03:35:27 10° WNW 03:38:29 20° W 03:38:29 20° W visible
21 Jul 10.2 00:12:22 10° N 00:15:58 16° NE 00:19:36 10° E visible
21 Jul 7.8 01:57:07 10° NNW 02:03:06 82° NE 02:03:06 82° NE visible
21 Jul 9.9 03:45:40 10° WNW 03:46:32 12° W 03:46:32 12° W visible
